| time (UTC) | temp F | wind direction | speed MPH | gust MPH | rain 1hr in | rain 24hr in | rain mn in | humidity % | barometer mb |
| 20260510154550 | 54 | 113 | 4.0 | 7.0 | 0.00 | 0.00 | 0.00 | 47 | 1016.9 |
| 20260510153042 | 54 | 83 | 3.0 | 7.0 | 0.00 | 0.00 | 0.00 | 47 | 1017.0 |
| 20260510151525 | 51 | 100 | 4.0 | 8.0 | 0.00 | 0.00 | 0.00 | 51 | 1017.2 |
| 20260510150023 | 51 | 98 | 2.0 | 6.0 | 0.00 | 0.00 | 0.00 | 53 | 1017.1 |
| 20260510144541 | 50 | 104 | 1.0 | 6.0 | 0.00 | 0.00 | 0.00 | 56 | 1017.2 |
| 20260510143014 | 47 | 274 | 4.0 | 9.0 | 0.00 | 0.00 | 0.00 | 57 | 1017.5 |
| 20260510141513 | 45 | 345 | 2.0 | 14.0 | 0.00 | 0.00 | 0.00 | 61 | 1017.6 |
| 20260510140011 | 44 | 345 | 9.0 | 14.0 | 0.00 | 0.00 | 0.00 | 61 | 1017.6 |
| 20260510134509 | 42 | 345 | 13.0 | 19.0 | 0.00 | 0.00 | 0.00 | 64 | 1017.7 |
| 20260510133008 | 41 | 345 | 14.0 | 19.0 | 0.00 | 0.00 | 0.00 | 66 | 1017.7 |
| 20260510131509 | 40 | 345 | 14.0 | 17.0 | 0.00 | 0.00 | 0.00 | 67 | 1017.8 |
| 20260510130008 | 39 | 345 | 13.0 | 18.0 | 0.00 | 0.00 | 0.00 | 68 | 1017.9 |
| 20260510124506 | 39 | 345 | 13.0 | 18.0 | 0.00 | 0.00 | 0.00 | 68 | 1017.9 |
| 20260510123005 | 39 | 345 | 12.0 | 18.0 | 0.00 | 0.00 | 0.00 | 69 | 1017.8 |
| 20260510121506 | 38 | 345 | 14.0 | 22.0 | 0.00 | 0.00 | 0.00 | 69 | 1017.8 |
| 20260510120009 | 38 | 345 | 15.0 | 20.0 | 0.00 | 0.00 | 0.00 | 69 | 1017.8 |
| 20260510114559 | 39 | 345 | 10.0 | 16.0 | 0.00 | 0.00 | 0.00 | 67 | 1017.6 |
| 20260510113058 | 39 | 345 | 8.0 | 14.0 | 0.00 | 0.00 | 0.00 | 66 | 1017.7 |
| 20260510111556 | 39 | 345 | 8.0 | 18.0 | 0.00 | 0.00 | 0.00 | 66 | 1017.8 |
| 20260510110100 | 39 | 345 | 14.0 | 19.0 | 0.00 | 0.00 | 0.00 | 66 | 1017.7 |
| 20260510104601 | 41 | 345 | 7.0 | 11.0 | 0.00 | 0.00 | 0.00 | 63 | 1017.9 |
| 20260510103050 | 41 | 345 | 5.0 | 10.0 | 0.00 | 0.00 | 0.00 | 64 | 1017.9 |
| 20260510101553 | 40 | 345 | 3.0 | 8.0 | 0.00 | 0.00 | 0.00 | 64 | 1017.9 |
| 20260510100053 | 41 | 345 | 3.0 | 8.0 | 0.00 | 0.00 | 0.00 | 63 | 1017.8 |
| 20260510094546 | 42 | 345 | 5.0 | 15.0 | 0.00 | 0.00 | 0.00 | 62 | 1017.6 |
| 20260510093047 | 42 | 345 | 14.0 | 19.0 | 0.00 | 0.00 | 0.00 | 62 | 1017.5 |
| 20260510091541 | 42 | 345 | 17.0 | 22.0 | 0.00 | 0.00 | 0.00 | 61 | 1017.4 |
| 20260510090040 | 42 | 345 | 14.0 | 18.0 | 0.00 | 0.00 | 0.00 | 62 | 1017.3 |
| 20260510084548 | 42 | 345 | 3.0 | 6.0 | 0.00 | 0.00 | 0.00 | 62 | 1017.4 |
| 20260510083039 | 43 | 345 | 10.0 | 18.0 | 0.00 | 0.00 | 0.00 | 61 | 1017.4 |
| 20260510081537 | 43 | 345 | 16.0 | 20.0 | 0.00 | 0.00 | 0.00 | 60 | 1017.3 |
| 20260510080034 | 43 | 345 | 15.0 | 19.0 | 0.00 | 0.00 | 0.00 | 61 | 1017.5 |
| 20260510074536 | 44 | 345 | 15.0 | 18.0 | 0.00 | 0.00 | 0.00 | 60 | 1017.6 |
| 20260510073045 | 44 | 345 | 15.0 | 19.0 | 0.00 | 0.00 | 0.00 | 59 | 1017.5 |
| 20260510071531 | 44 | 345 | 15.0 | 20.0 | 0.00 | 0.00 | 0.00 | 60 | 1017.5 |
| 20260510070034 | 44 | 345 | 16.0 | 21.0 | 0.00 | 0.00 | 0.00 | 60 | 1017.6 |
| 20260510064527 | 44 | 345 | 16.0 | 21.0 | 0.00 | 0.00 | 0.00 | 59 | 1017.5 |
| 20260510063025 | 44 | 345 | 13.0 | 18.0 | 0.00 | 0.00 | 0.00 | 59 | 1017.4 |
| 20260510061523 | 45 | 345 | 12.0 | 15.0 | 0.00 | 0.00 | 0.00 | 57 | 1017.3 |
| 20260510060033 | 46 | 345 | 12.0 | 15.0 | 0.00 | 0.00 | 0.00 | 56 | 1017.2 |
| 20260510054519 | 46 | 345 | 11.0 | 17.0 | 0.00 | 0.00 | 0.00 | 55 | 1017.2 |
| 20260510053017 | 47 | 345 | 12.0 | 15.0 | 0.00 | 0.00 | 0.00 | 53 | 1017.1 |
| 20260510051517 | 47 | 345 | 11.0 | 13.0 | 0.00 | 0.00 | 0.00 | 53 | 1017.0 |
| 20260510050016 | 48 | 345 | 12.0 | 15.0 | 0.00 | 0.00 | 0.00 | 52 | 1017.0 |
| 20260510044514 | 47 | 345 | 11.0 | 14.0 | 0.00 | 0.00 | 0.00 | 52 | 1016.8 |
| 20260510043014 | 48 | 345 | 7.0 | 13.0 | 0.00 | 0.00 | 0.00 | 51 | 1016.9 |
| 20260510041512 | 48 | 345 | 8.0 | 10.0 | 0.00 | 0.00 | 0.00 | 50 | 1016.7 |
| 20260510040012 | 50 | 345 | 6.0 | 10.0 | 0.00 | 0.00 | 0.00 | 47 | 1016.6 |
| 20260510034510 | 51 | 345 | 9.0 | 11.0 | 0.00 | 0.00 | 0.00 | 44 | 1016.3 |
| 20260510033007 | 49 | 345 | 9.0 | 12.0 | 0.00 | 0.00 | 0.00 | 48 | 1016.1 |
| 20260510031506 | 51 | 237 | 10.0 | 13.0 | 0.00 | 0.00 | 0.00 | 44 | 1015.9 |
| 20260510030005 | 51 | 229 | 8.0 | 11.0 | 0.00 | 0.00 | 0.00 | 45 | 1015.5 |
| 20260510024504 | 53 | 345 | 8.0 | 10.0 | 0.00 | 0.00 | 0.00 | 42 | 1015.4 |
| 20260510023001 | 55 | 345 | 6.0 | 8.0 | 0.00 | 0.00 | 0.00 | 40 | 1015.1 |
| 20260510021601 | 56 | 219 | 5.0 | 10.0 | 0.00 | 0.00 | 0.00 | 37 | 1014.8 |
| 20260510020100 | 58 | 233 | 5.0 | 9.0 | 0.00 | 0.00 | 0.00 | 35 | 1014.7 |
| 20260510014601 | 60 | 229 | 5.0 | 11.0 | 0.00 | 0.00 | 0.00 | 33 | 1014.6 |
| 20260510013111 | 60 | 249 | 7.0 | 10.0 | 0.00 | 0.00 | 0.00 | 31 | 1014.6 |
| 20260510011558 | 60 | 214 | 9.0 | 17.0 | 0.00 | 0.00 | 0.00 | 31 | 1014.5 |
| 20260510010057 | 60 | 248 | 11.0 | 14.0 | 0.00 | 0.00 | 0.00 | 31 | 1014.5 |
| 20260510004600 | 60 | 210 | 7.0 | 10.0 | 0.00 | 0.00 | 0.00 | 33 | 1014.4 |
| 20260510003056 | 60 | 178 | 6.0 | 10.0 | 0.00 | 0.00 | 0.00 | 32 | 1014.4 |
| 20260510001556 | 61 | 200 | 12.0 | 19.0 | 0.00 | 0.00 | 0.00 | 30 | 1014.3 |
| 20260510000056 | 62 | 191 | 10.0 | 15.0 | 0.00 | 0.00 | 0.00 | 30 | 1014.1 |
| 20260509234555 | 63 | 258 | 9.0 | 15.0 | 0.00 | 0.00 | 0.00 | 28 | 1014.0 |
| 20260509233058 | 62 | 291 | 9.0 | 18.0 | 0.00 | 0.00 | 0.00 | 28 | 1014.1 |
| 20260509231559 | 63 | 257 | 11.0 | 18.0 | 0.00 | 0.00 | 0.00 | 27 | 1014.1 |
| 20260509230052 | 63 | 115 | 9.0 | 15.0 | 0.00 | 0.00 | 0.00 | 28 | 1013.8 |
| 20260509224552 | 62 | 276 | 13.0 | 17.0 | 0.00 | 0.00 | 0.00 | 27 | 1014.0 |
| 20260509223051 | 62 | 315 | 12.0 | 19.0 | 0.00 | 0.00 | 0.00 | 25 | 1014.0 |
| 20260509221550 | 62 | 345 | 2.0 | 14.0 | 0.00 | 0.00 | 0.00 | 28 | 1014.0 |
| 20260509220054 | 62 | 219 | 15.0 | 20.0 | 0.00 | 0.00 | 0.00 | 27 | 1014.1 |
| 20260509214551 | 63 | 221 | 16.0 | 25.0 | 0.00 | 0.00 | 0.00 | 27 | 1014.1 |
| 20260509213049 | 61 | 166 | 8.0 | 18.0 | 0.00 | 0.00 | 0.00 | 28 | 1014.1 |
| 20260509211548 | 62 | 258 | 13.0 | 20.0 | 0.00 | 0.00 | 0.00 | 29 | 1014.1 |
| 20260509210052 | 61 | 277 | 10.0 | 21.0 | 0.00 | 0.00 | 0.00 | 30 | 1014.1 |
| 20260509204541 | 60 | 221 | 6.0 | 12.0 | 0.00 | 0.00 | 0.00 | 31 | 1014.3 |
| 20260509203040 | 58 | 227 | 6.0 | 17.0 | 0.00 | 0.00 | 0.00 | 32 | 1014.4 |
| 20260509201539 | 59 | 223 | 12.0 | 18.0 | 0.00 | 0.00 | 0.00 | 30 | 1014.4 |
| 20260509200136 | 58 | 355 | 7.0 | 13.0 | 0.00 | 0.00 | 0.00 | 32 | 1014.4 |
| 20260509194537 | 57 | 217 | 4.0 | 18.0 | 0.00 | 0.00 | 0.00 | 31 | 1014.5 |
| 20260509193034 | 57 | 213 | 8.0 | 17.0 | 0.00 | 0.00 | 0.00 | 32 | 1014.6 |
| 20260509191534 | 57 | 150 | 4.0 | 14.0 | 0.00 | 0.00 | 0.00 | 31 | 1014.7 |
| 20260509190032 | 56 | 229 | 11.0 | 16.0 | 0.00 | 0.00 | 0.00 | 32 | 1014.7 |
| 20260509184538 | 55 | 173 | 8.0 | 11.0 | 0.00 | 0.00 | 0.00 | 33 | 1014.8 |
| 20260509183028 | 54 | 180 | 6.0 | 17.0 | 0.00 | 0.00 | 0.00 | 36 | 1014.8 |
| 20260509181527 | 53 | 212 | 12.0 | 17.0 | 0.00 | 0.00 | 0.00 | 36 | 1014.9 |
| 20260509180026 | 53 | 221 | 14.0 | 20.0 | 0.00 | 0.00 | 0.00 | 36 | 1014.9 |
| 20260509174533 | 53 | 244 | 10.0 | 18.0 | 0.00 | 0.00 | 0.00 | 37 | 1014.8 |
| 20260509173027 | 52 | 200 | 11.0 | 15.0 | 0.00 | 0.00 | 0.00 | 38 | 1014.7 |
| 20260509171522 | 52 | 235 | 9.0 | 22.0 | 0.00 | 0.00 | 0.00 | 37 | 1014.6 |
| 20260509170021 | 54 | 225 | 14.0 | 21.0 | 0.00 | 0.00 | 0.00 | 34 | 1014.3 |
| 20260509164519 | 53 | 229 | 12.0 | 20.0 | 0.00 | 0.00 | 0.00 | 36 | 1014.1 |
| 20260509163023 | 53 | 223 | 15.0 | 23.0 | 0.00 | 0.00 | 0.00 | 37 | 1014.0 |
| 20260509161515 | 53 | 202 | 14.0 | 19.0 | 0.00 | 0.00 | 0.00 | 36 | 1013.9 |
| 20260509160013 | 52 | 202 | 12.0 | 23.0 | 0.00 | 0.00 | 0.00 | 38 | 1013.8 |